Millville, NJ

4:12 PM EDT on July 23, 2016 (GMT -0400)
Millville Municipal

Weather History for KMIV - January, 2013

Change the Weather History Date:

Saturday, January 26, 2013

  Actual Average Record
Temperature  
Mean Temperature 16 °F -  
Max Temperature 28 °F 42 °F 74 °F (1950)
Min Temperature 3 °F 25 °F -3 °F (1961)
Degree Days  
Heating Degree Days 50    
Moisture  
Dew Point 10 °F    
Average Humidity 68    
Maximum Humidity 92    
Minimum Humidity 47    
Precipitation  
Precipitation 0.06 in - - ()
Sea Level Pressure  
Sea Level Pressure 30.21 in    
Wind  
Wind Speed 6 mph (NW)    
Max Wind Speed 17 mph    
Max Gust Speed 23 mph    
Visibility 9 miles    
Events      
Averages and records for this station are not official NWS values.
T = Trace of Precipitation, MM = Missing Value Source: NWS Daily Summary

Daily Weather History Graph

Daily Weather History Graph

Search for Another Location

Airport or City:

Trip Planner

Search our weather history database for the weather conditions in past years. The results will help you decide how hot, cold, wet, or windy it might be!

Date:

Astronomy

Jan. 26, 2013 Rise Set
Actual Time 7:12 AM EST 5:14 PM EST
Civil Twilight 6:43 AM EST 5:42 PM EST
Nautical Twilight 6:11 AM EST 6:15 PM EST
Astronomical Twilight 5:39 AM EST 6:46 PM EST
Moon 5:06 PM EST (1/26) 6:28 AM EST (1/26)
Length of Visible Light 10h 59m
Length of Day
10h 01m
Full, 100% of the Moon is Illuminated
Jan 26
Full
Jan 26
Full
Feb 3
Last Quarter
Feb 10
New
Feb 17
First Quarter

Hourly Weather History & Observations

Time (EST) Temp. Windchill Dew Point Humidity Pressure Visibility Wind Dir Wind Speed Gust Speed Precip Events Conditions
12:17 AM 12.2 °F 6.1 °F 10.4 °F 92% 30.08 in 5.0 mi North 3.5 mph - N/A   Scattered Clouds
12:54 AM 12.0 °F 4.1 °F 10.0 °F 92% 30.08 in 5.0 mi NNW 4.6 mph - N/A   Clear
1:54 AM 3.9 °F - 1.0 °F 88% 30.10 in 5.0 mi Calm Calm - N/A   Clear
2:54 AM 3.0 °F - -0.9 °F 84% 30.09 in 7.0 mi Calm Calm - N/A   Partly Cloudy
3:54 AM 10.0 °F 3.6 °F 7.0 °F 87% 30.09 in 8.0 mi West 3.5 mph - N/A   Overcast
4:54 AM 14.0 °F - 10.0 °F 84% 30.11 in 7.0 mi Calm Calm - N/A   Overcast
5:54 AM 18.0 °F 9.8 °F 15.1 °F 88% 30.13 in 7.0 mi NW 5.8 mph - N/A   Overcast
6:54 AM 19.0 °F 13.9 °F 15.1 °F 85% 30.15 in 7.0 mi NW 3.5 mph - N/A   Overcast
7:54 AM 19.9 °F 11.1 °F 16.0 °F 85% 30.18 in 7.0 mi WNW 6.9 mph - N/A   Overcast
8:54 AM 21.0 °F 11.4 °F 14.0 °F 74% 30.19 in 7.0 mi WNW 8.1 mph - N/A   Overcast
9:54 AM 21.9 °F 9.8 °F 12.0 °F 66% 30.21 in 9.0 mi NW 12.7 mph 19.6 mph N/A   Overcast
10:54 AM 24.1 °F 13.7 °F 12.0 °F 60% 30.21 in 10.0 mi NNW 10.4 mph - N/A   Overcast
11:54 AM 26.1 °F 16.2 °F 12.0 °F 55% 30.22 in 10.0 mi WNW 10.4 mph 21.9 mph N/A   Mostly Cloudy
12:54 PM 27.0 °F 16.1 °F 10.9 °F 51% 30.18 in 10.0 mi WNW 12.7 mph - 0.00 in   Clear
1:54 PM 27.0 °F 14.3 °F 10.9 °F 51% 30.19 in 10.0 mi NNW 17.3 mph 23.0 mph 0.04 in   Clear
2:54 PM 28.0 °F 17.5 °F 10.9 °F 49% 30.21 in 10.0 mi NW 12.7 mph - 0.02 in   Clear
3:54 PM 28.0 °F 19.3 °F 10.9 °F 49% 30.22 in 10.0 mi NNW 9.2 mph 19.6 mph N/A   Clear
4:54 PM 27.0 °F 16.7 °F 9.0 °F 47% 30.24 in 10.0 mi WNW 11.5 mph - N/A   Clear
5:54 PM 25.0 °F 15.5 °F 10.0 °F 53% 30.27 in 10.0 mi WNW 9.2 mph - N/A   Clear
6:54 PM 24.1 °F 16.0 °F 10.0 °F 55% 30.30 in 10.0 mi NW 6.9 mph - N/A   Clear
7:54 PM 21.9 °F 13.4 °F 10.0 °F 60% 30.33 in 10.0 mi WNW 6.9 mph - N/A   Clear
8:54 PM 21.9 °F 15.7 °F 10.0 °F 60% 30.35 in 10.0 mi NW 4.6 mph - N/A   Clear
9:54 PM 19.0 °F 11.1 °F 9.0 °F 65% 30.38 in 10.0 mi NW 5.8 mph - N/A   Clear
10:54 PM 21.0 °F 13.4 °F 9.0 °F 60% 30.40 in 10.0 mi NW 5.8 mph - N/A   Clear
11:54 PM 19.0 °F 11.1 °F 9.0 °F 65% 30.42 in 10.0 mi NW 5.8 mph - N/A   Clear